UWE-3

Last updated on Fri Dec 19 2025 00:03:11 GMT+0000 (Coordinated Universal Time)

1 39446U 13066AG 25352.37627641 .00002886 00000+0 26205-3 0 9996 2 39446 97.8484 302.7302 0049886 200.4615 159.4608 14.95150060650542
UTC large
Height (km)
Speed (km/s)
/
Latitude / Longitude
Inclination (degrees)
Orbital Period (minutes)
Azimuth
Elevation
Range (km)
Doppler Factor

Next 0 passes for location: London (51.5072 / 0.1276)

Sorry there are no passes over London.